| time (UTC) | temp F | wind direction | speed MPH | gust MPH | rain 1hr in | rain 24hr in | rain mn in | humidity % | barometer mb |
| 20260905171443 | 86 | 158 | 3.0 | 6.0 | 0.00 | 0.00 | 0.00 | 47 | 1016.7 |
| 20260905171242 | 86 | 225 | 2.0 | 4.0 | 0.00 | 0.00 | 0.00 | 47 | 1016.8 |
| 20260905170842 | 86 | 135 | 3.0 | 4.0 | 0.00 | 0.00 | 0.00 | 47 | 1016.8 |
| 20260905170643 | 86 | 112 | 4.0 | 7.0 | 0.00 | 0.00 | 0.00 | 47 | 1016.7 |
| 20260905170242 | 87 | 158 | 4.0 | 7.0 | 0.00 | 0.00 | 0.00 | 47 | 1016.9 |
| 20260905165842 | 87 | 270 | 3.0 | 6.0 | 0.00 | 0.00 | 0.00 | 47 | 1016.6 |
| 20260905165643 | 87 | 158 | 3.0 | 4.0 | 0.00 | 0.00 | 0.00 | 47 | 1016.7 |
| 20260905165241 | 87 | 180 | 4.0 | 7.0 | 0.00 | 0.00 | 0.00 | 48 | 1016.7 |
| 20260905165045 | 87 | 68 | 4.0 | 6.0 | 0.00 | 0.00 | 0.00 | 48 | 1016.9 |
| 20260905164842 | 87 | 135 | 3.0 | 6.0 | 0.00 | 0.00 | 0.00 | 48 | 1016.7 |
| 20260905164643 | 88 | 225 | 4.0 | 7.0 | 0.00 | 0.00 | 0.00 | 48 | 1016.8 |
| 20260905164441 | 88 | 158 | 3.0 | 4.0 | 0.00 | 0.00 | 0.00 | 48 | 1016.7 |
| 20260905164242 | 88 | 158 | 3.0 | 4.0 | 0.00 | 0.00 | 0.00 | 47 | 1016.8 |
| 20260905164052 | 88 | 158 | 7.0 | 9.0 | 0.00 | 0.00 | 0.00 | 46 | 1016.8 |
| 20260905163840 | 88 | 225 | 3.0 | 4.0 | 0.00 | 0.00 | 0.00 | 46 | 1016.8 |
| 20260905163641 | 88 | 180 | 4.0 | 7.0 | 0.00 | 0.00 | 0.00 | 46 | 1016.7 |
| 20260905163047 | 89 | 225 | 4.0 | 7.0 | 0.00 | 0.00 | 0.00 | 44 | 1016.8 |
| 20260905162842 | 89 | 158 | 4.0 | 4.0 | 0.00 | 0.00 | 0.00 | 44 | 1016.8 |
| 20260905162642 | 89 | 158 | 4.0 | 8.0 | 0.00 | 0.00 | 0.00 | 44 | 1016.7 |
| 20260905162441 | 89 | 158 | 6.0 | 11.0 | 0.00 | 0.00 | 0.00 | 43 | 1016.7 |
| 20260905162242 | 89 | 180 | 4.0 | 8.0 | 0.00 | 0.00 | 0.00 | 42 | 1016.8 |
| 20260905162045 | 89 | 158 | 4.0 | 6.0 | 0.00 | 0.00 | 0.00 | 42 | 1017.0 |
| 20260905161843 | 89 | 112 | 6.0 | 8.0 | 0.00 | 0.00 | 0.00 | 41 | 1016.8 |
| 20260905161641 | 90 | 202 | 6.0 | 8.0 | 0.00 | 0.00 | 0.00 | 41 | 1016.6 |
| 20260905161441 | 90 | 202 | 5.0 | 7.0 | 0.00 | 0.00 | 0.00 | 40 | 1016.7 |
| 20260905161242 | 90 | 135 | 4.0 | 6.0 | 0.00 | 0.00 | 0.00 | 39 | 1016.9 |
| 20260905161049 | 90 | 225 | 4.0 | 6.0 | 0.00 | 0.00 | 0.00 | 39 | 1016.6 |
| 20260905160841 | 90 | 180 | 4.0 | 7.0 | 0.00 | 0.00 | 0.00 | 39 | 1016.9 |
| 20260905160440 | 91 | 202 | 3.0 | 4.0 | 0.00 | 0.00 | 0.00 | 38 | 1016.9 |
| 20260905160241 | 91 | 180 | 4.0 | 7.0 | 0.00 | 0.00 | 0.00 | 37 | 1016.8 |
| 20260905155841 | 91 | 180 | 4.0 | 7.0 | 0.00 | 0.00 | 0.00 | 37 | 1016.8 |
| 20260905155644 | 91 | 158 | 4.0 | 8.0 | 0.00 | 0.00 | 0.00 | 36 | 1016.8 |
| 20260905155441 | 91 | 180 | 6.0 | 8.0 | 0.00 | 0.00 | 0.00 | 35 | 1016.8 |
| 20260905155242 | 91 | 180 | 5.0 | 8.0 | 0.00 | 0.00 | 0.00 | 35 | 1016.8 |
| 20260905155044 | 91 | 180 | 6.0 | 8.0 | 0.00 | 0.00 | 0.00 | 35 | 1017.0 |
| 20260905154641 | 91 | 180 | 6.0 | 9.0 | 0.00 | 0.00 | 0.00 | 34 | 1016.8 |
| 20260905154441 | 92 | 270 | 7.0 | 9.0 | 0.00 | 0.00 | 0.00 | 34 | 1016.9 |
| 20260905154240 | 92 | 158 | 5.0 | 9.0 | 0.00 | 0.00 | 0.00 | 34 | 1017.0 |
| 20260905154047 | 92 | 158 | 5.0 | 8.0 | 0.00 | 0.00 | 0.00 | 34 | 1016.9 |
| 20260905153842 | 92 | 158 | 6.0 | 9.0 | 0.00 | 0.00 | 0.00 | 35 | 1016.9 |
| 20260905153440 | 92 | 180 | 7.0 | 11.0 | 0.00 | 0.00 | 0.00 | 35 | 1016.9 |
| 20260905153241 | 92 | 158 | 4.0 | 8.0 | 0.00 | 0.00 | 0.00 | 35 | 1016.9 |
| 20260905152241 | 92 | 225 | 5.0 | 9.0 | 0.00 | 0.00 | 0.00 | 36 | 1017.0 |
| 20260905152044 | 92 | 158 | 6.0 | 9.0 | 0.00 | 0.00 | 0.00 | 36 | 1016.9 |
| 20260905151842 | 92 | 180 | 6.0 | 9.0 | 0.00 | 0.00 | 0.00 | 36 | 1017.0 |
| 20260905151641 | 92 | 202 | 6.0 | 9.0 | 0.00 | 0.00 | 0.00 | 37 | 1017.0 |
| 20260905151241 | 92 | 202 | 4.0 | 6.0 | 0.00 | 0.00 | 0.00 | 37 | 1017.2 |
| 20260905151051 | 92 | 112 | 3.0 | 4.0 | 0.00 | 0.00 | 0.00 | 37 | 1017.3 |
| 20260905150841 | 92 | 180 | 4.0 | 7.0 | 0.00 | 0.00 | 0.00 | 37 | 1017.0 |
| 20260905150641 | 92 | 180 | 7.0 | 11.0 | 0.00 | 0.00 | 0.00 | 37 | 1017.0 |
| 20260905150242 | 93 | 180 | 4.0 | 9.0 | 0.00 | 0.00 | 0.00 | 36 | 1017.0 |
| 20260905145841 | 93 | 180 | 4.0 | 7.0 | 0.00 | 0.00 | 0.00 | 36 | 1016.9 |
| 20260905145642 | 92 | 135 | 4.0 | 6.0 | 0.00 | 0.00 | 0.00 | 35 | 1016.9 |
| 20260905145442 | 93 | 180 | 6.0 | 8.0 | 0.00 | 0.00 | 0.00 | 35 | 1017.1 |
| 20260905145045 | 93 | 180 | 5.0 | 9.0 | 0.00 | 0.00 | 0.00 | 34 | 1017.2 |
| 20260905144841 | 93 | 180 | 6.0 | 11.0 | 0.00 | 0.00 | 0.00 | 34 | 1016.9 |
| 20260905144441 | 93 | 135 | 5.0 | 7.0 | 0.00 | 0.00 | 0.00 | 35 | 1017.1 |
| 20260905144241 | 93 | 158 | 6.0 | 9.0 | 0.00 | 0.00 | 0.00 | 34 | 1017.0 |
| 20260905143840 | 93 | 202 | 4.0 | 8.0 | 0.00 | 0.00 | 0.00 | 35 | 1017.0 |
| 20260905143642 | 93 | 180 | 4.0 | 7.0 | 0.00 | 0.00 | 0.00 | 35 | 1017.1 |
| 20260905143443 | 93 | 180 | 4.0 | 7.0 | 0.00 | 0.00 | 0.00 | 34 | 1016.9 |
| 20260905143241 | 93 | 158 | 4.0 | 8.0 | 0.00 | 0.00 | 0.00 | 34 | 1016.9 |
| 20260905142842 | 94 | 180 | 6.0 | 9.0 | 0.00 | 0.00 | 0.00 | 33 | 1017.1 |
| 20260905142649 | 94 | 135 | 4.0 | 6.0 | 0.00 | 0.00 | 0.00 | 34 | 1016.9 |
| 20260905142442 | 94 | 112 | 4.0 | 6.0 | 0.00 | 0.00 | 0.00 | 35 | 1017.0 |
| 20260905142241 | 94 | 135 | 4.0 | 6.0 | 0.00 | 0.00 | 0.00 | 34 | 1017.2 |
| 20260905142046 | 94 | 248 | 8.0 | 11.0 | 0.00 | 0.00 | 0.00 | 34 | 1017.1 |
| 20260905141645 | 93 | 158 | 7.0 | 11.0 | 0.00 | 0.00 | 0.00 | 35 | 1017.1 |
| 20260905141442 | 93 | 158 | 5.0 | 8.0 | 0.00 | 0.00 | 0.00 | 34 | 1017.1 |
| 20260905141241 | 94 | 135 | 8.0 | 11.0 | 0.00 | 0.00 | 0.00 | 35 | 1017.1 |
| 20260905141052 | 94 | 202 | 6.0 | 8.0 | 0.00 | 0.00 | 0.00 | 34 | 1017.3 |
| 20260905140642 | 94 | 158 | 4.0 | 6.0 | 0.00 | 0.00 | 0.00 | 34 | 1017.3 |
| 20260905140442 | 93 | 135 | 4.0 | 7.0 | 0.00 | 0.00 | 0.00 | 34 | 1017.3 |
| 20260905140241 | 93 | 180 | 5.0 | 9.0 | 0.00 | 0.00 | 0.00 | 33 | 1017.3 |
| 20260905140049 | 94 | 180 | 6.0 | 8.0 | 0.00 | 0.00 | 0.00 | 33 | 1017.3 |
| 20260905135842 | 94 | 180 | 7.0 | 9.0 | 0.00 | 0.00 | 0.00 | 32 | 1017.3 |
| 20260905135642 | 94 | 135 | 4.0 | 7.0 | 0.00 | 0.00 | 0.00 | 33 | 1017.1 |
| 20260905135241 | 94 | 180 | 7.0 | 9.0 | 0.00 | 0.00 | 0.00 | 34 | 1017.2 |
| 20260905135049 | 94 | 158 | 4.0 | 7.0 | 0.00 | 0.00 | 0.00 | 34 | 1017.2 |
| 20260905134841 | 94 | 180 | 4.0 | 7.0 | 0.00 | 0.00 | 0.00 | 34 | 1017.2 |
| 20260905134642 | 94 | 202 | 5.0 | 8.0 | 0.00 | 0.00 | 0.00 | 33 | 1017.2 |
| 20260905134241 | 94 | 158 | 5.0 | 8.0 | 0.00 | 0.00 | 0.00 | 33 | 1017.5 |
| 20260905134050 | 94 | 158 | 4.0 | 7.0 | 0.00 | 0.00 | 0.00 | 33 | 1017.4 |
| 20260905133843 | 94 | 135 | 4.0 | 7.0 | 0.00 | 0.00 | 0.00 | 36 | 1017.2 |
| 20260905133641 | 94 | 112 | 4.0 | 6.0 | 0.00 | 0.00 | 0.00 | 35 | 1017.3 |
| 20260905133441 | 94 | 180 | 4.0 | 6.0 | 0.00 | 0.00 | 0.00 | 33 | 1017.4 |
| 20260905133054 | 94 | 135 | 4.0 | 8.0 | 0.00 | 0.00 | 0.00 | 34 | 1017.5 |
| 20260905132643 | 94 | 112 | 5.0 | 8.0 | 0.00 | 0.00 | 0.00 | 33 | 1017.3 |
| 20260905132441 | 94 | 135 | 4.0 | 7.0 | 0.00 | 0.00 | 0.00 | 33 | 1017.4 |
| 20260905132243 | 94 | 180 | 3.0 | 6.0 | 0.00 | 0.00 | 0.00 | 33 | 1017.4 |
| 20260905131841 | 94 | 135 | 4.0 | 7.0 | 0.00 | 0.00 | 0.00 | 33 | 1017.6 |
| 20260905131642 | 94 | 158 | 5.0 | 8.0 | 0.00 | 0.00 | 0.00 | 32 | 1017.5 |
| 20260905131440 | 94 | 112 | 4.0 | 6.0 | 0.00 | 0.00 | 0.00 | 31 | 1017.4 |
| 20260905131054 | 94 | 135 | 5.0 | 9.0 | 0.00 | 0.00 | 0.00 | 29 | 1017.7 |
| 20260905130841 | 94 | 112 | 6.0 | 11.0 | 0.00 | 0.00 | 0.00 | 33 | 1017.6 |
| 20260905130641 | 94 | 112 | 4.0 | 11.0 | 0.00 | 0.00 | 0.00 | 31 | 1017.5 |
| 20260905130441 | 94 | 158 | 6.0 | 9.0 | 0.00 | 0.00 | 0.00 | 31 | 1017.4 |
| 20260905130242 | 95 | 158 | 5.0 | 8.0 | 0.00 | 0.00 | 0.00 | 30 | 1017.6 |
| 20260905125843 | 95 | 135 | 4.0 | 7.0 | 0.00 | 0.00 | 0.00 | 29 | 1017.8 |
| 20260905125642 | 95 | 112 | 4.0 | 6.0 | 0.00 | 0.00 | 0.00 | 30 | 1017.6 |
| 20260905125441 | 94 | 180 | 6.0 | 11.0 | 0.00 | 0.00 | 0.00 | 30 | 1017.7 |
| 20260905125241 | 94 | 158 | 6.0 | 11.0 | 0.00 | 0.00 | 0.00 | 30 | 1017.4 |
| 20260905125045 | 95 | 158 | 6.0 | 8.0 | 0.00 | 0.00 | 0.00 | 30 | 1017.8 |
| 20260905124841 | 95 | 180 | 4.0 | 7.0 | 0.00 | 0.00 | 0.00 | 32 | 1017.7 |
| 20260905124642 | 95 | 112 | 4.0 | 7.0 | 0.00 | 0.00 | 0.00 | 29 | 1017.5 |
| 20260905124441 | 95 | 112 | 5.0 | 7.0 | 0.00 | 0.00 | 0.00 | 30 | 1017.7 |
| 20260905124242 | 95 | 158 | 6.0 | 9.0 | 0.00 | 0.00 | 0.00 | 30 | 1017.8 |
| 20260905124055 | 95 | 158 | 4.0 | 7.0 | 0.00 | 0.00 | 0.00 | 32 | 1017.7 |
| 20260905123642 | 96 | 112 | 5.0 | 7.0 | 0.00 | 0.00 | 0.00 | 33 | 1017.8 |
| 20260905123441 | 95 | 135 | 4.0 | 6.0 | 0.00 | 0.00 | 0.00 | 33 | 1017.6 |
| 20260905123247 | 95 | 90 | 3.0 | 6.0 | 0.00 | 0.00 | 0.00 | 34 | 1017.7 |
| 20260905123048 | 96 | 180 | 4.0 | 8.0 | 0.00 | 0.00 | 0.00 | 34 | 1017.8 |
| 20260905122841 | 96 | 158 | 3.0 | 4.0 | 0.00 | 0.00 | 0.00 | 31 | 1017.8 |
| 20260905122642 | 95 | 158 | 4.0 | 6.0 | 0.00 | 0.00 | 0.00 | 32 | 1018.0 |
| 20260905122441 | 95 | 112 | 4.0 | 8.0 | 0.00 | 0.00 | 0.00 | 34 | 1017.7 |
| 20260905121842 | 96 | 225 | 4.0 | 6.0 | 0.00 | 0.00 | 0.00 | 32 | 1017.9 |
| 20260905121641 | 96 | 180 | 4.0 | 7.0 | 0.00 | 0.00 | 0.00 | 31 | 1018.0 |
| 20260905121444 | 96 | 135 | 4.0 | 8.0 | 0.00 | 0.00 | 0.00 | 30 | 1017.8 |
| 20260905121241 | 96 | 202 | 4.0 | 7.0 | 0.00 | 0.00 | 0.00 | 31 | 1018.0 |
| 20260905121101 | 96 | 112 | 4.0 | 6.0 | 0.00 | 0.00 | 0.00 | 28 | 1017.9 |
| 20260905120841 | 95 | 180 | 4.0 | 6.0 | 0.00 | 0.00 | 0.00 | 29 | 1017.9 |
| 20260905120441 | 95 | 135 | 4.0 | 4.0 | 0.00 | 0.00 | 0.00 | 30 | 1018.0 |
| 20260905120241 | 95 | 68 | 5.0 | 9.0 | 0.00 | 0.00 | 0.00 | 30 | 1018.0 |
| 20260905115841 | 96 | 112 | 3.0 | 4.0 | 0.00 | 0.00 | 0.00 | 29 | 1018.0 |
| 20260905115647 | 96 | 158 | 4.0 | 6.0 | 0.00 | 0.00 | 0.00 | 29 | 1018.0 |
| 20260905115447 | 94 | 135 | 4.0 | 6.0 | 0.00 | 0.00 | 0.00 | 28 | 1018.1 |
| 20260905115242 | 94 | 158 | 4.0 | 6.0 | 0.00 | 0.00 | 0.00 | 29 | 1018.1 |
| 20260905115047 | 96 | 112 | 4.0 | 7.0 | 0.00 | 0.00 | 0.00 | 29 | 1018.1 |
| 20260905114842 | 96 | 90 | 3.0 | 6.0 | 0.00 | 0.00 | 0.00 | 29 | 1018.1 |
| 20260905114645 | 95 | 112 | 4.0 | 6.0 | 0.00 | 0.00 | 0.00 | 29 | 1018.1 |
| 20260905114442 | 95 | 158 | 4.0 | 6.0 | 0.00 | 0.00 | 0.00 | 29 | 1018.2 |
| 20260905114241 | 95 | 135 | 4.0 | 6.0 | 0.00 | 0.00 | 0.00 | 29 | 1018.1 |
| 20260905114049 | 95 | 135 | 4.0 | 7.0 | 0.00 | 0.00 | 0.00 | 30 | 1018.3 |
| 20260905113842 | 96 | 112 | 4.0 | 7.0 | 0.00 | 0.00 | 0.00 | 30 | 1018.1 |
| 20260905113641 | 96 | 202 | 4.0 | 7.0 | 0.00 | 0.00 | 0.00 | 30 | 1018.0 |
| 20260905113442 | 96 | 180 | 3.0 | 6.0 | 0.00 | 0.00 | 0.00 | 30 | 1018.0 |
| 20260905113243 | 96 | 158 | 4.0 | 8.0 | 0.00 | 0.00 | 0.00 | 30 | 1018.1 |
| 20260905113047 | 96 | 112 | 3.0 | 6.0 | 0.00 | 0.00 | 0.00 | 31 | 1018.2 |
| 20260905112441 | 95 | 112 | 4.0 | 8.0 | 0.00 | 0.00 | 0.00 | 31 | 1018.1 |
| 20260905112241 | 96 | 135 | 4.0 | 7.0 | 0.00 | 0.00 | 0.00 | 31 | 1018.1 |
| 20260905112046 | 95 | 112 | 4.0 | 6.0 | 0.00 | 0.00 | 0.00 | 30 | 1018.2 |
| 20260905111842 | 95 | 225 | 4.0 | 7.0 | 0.00 | 0.00 | 0.00 | 31 | 1018.1 |
| 20260905111643 | 95 | 112 | 4.0 | 8.0 | 0.00 | 0.00 | 0.00 | 29 | 1018.1 |
| 20260905111243 | 95 | 112 | 3.0 | 4.0 | 0.00 | 0.00 | 0.00 | 30 | 1018.2 |
| 20260905111057 | 96 | 225 | 4.0 | 6.0 | 0.00 | 0.00 | 0.00 | 28 | 1018.1 |
| 20260905110843 | 95 | 202 | 4.0 | 6.0 | 0.00 | 0.00 | 0.00 | 30 | 1018.1 |
| 20260905110640 | 95 | 135 | 4.0 | 7.0 | 0.00 | 0.00 | 0.00 | 27 | 1018.3 |
| 20260905110442 | 96 | 180 | 2.0 | 4.0 | 0.00 | 0.00 | 0.00 | 30 | 1018.3 |
| 20260905110049 | 95 | 158 | 2.0 | 4.0 | 0.00 | 0.00 | 0.00 | 35 | 1018.2 |
| 20260905105841 | 95 | 135 | 4.0 | 7.0 | 0.00 | 0.00 | 0.00 | 32 | 1018.2 |
| 20260905105441 | 95 | 180 | 4.0 | 9.0 | 0.00 | 0.00 | 0.00 | 34 | 1018.2 |
| 20260905105046 | 95 | 112 | 2.0 | 2.0 | 0.00 | 0.00 | 0.00 | 38 | 1018.2 |
| 20260905104841 | 95 | 112 | 3.0 | 4.0 | 0.00 | 0.00 | 0.00 | 37 | 1018.2 |
| 20260905104641 | 94 | 112 | 3.0 | 6.0 | 0.00 | 0.00 | 0.00 | 38 | 1018.2 |
| 20260905104443 | 95 | 158 | 4.0 | 8.0 | 0.00 | 0.00 | 0.00 | 40 | 1018.1 |
| 20260905104049 | 94 | 158 | 2.0 | 4.0 | 0.00 | 0.00 | 0.00 | 37 | 1018.1 |
| 20260905103841 | 95 | 112 | 4.0 | 6.0 | 0.00 | 0.00 | 0.00 | 33 | 1018.3 |
| 20260905103641 | 95 | 68 | 4.0 | 6.0 | 0.00 | 0.00 | 0.00 | 34 | 1018.4 |
| 20260905103442 | 96 | 202 | 3.0 | 4.0 | 0.00 | 0.00 | 0.00 | 35 | 1018.6 |
| 20260905103241 | 95 | 158 | 4.0 | 4.0 | 0.00 | 0.00 | 0.00 | 35 | 1018.2 |
| 20260905102841 | 94 | 112 | 3.0 | 4.0 | 0.00 | 0.00 | 0.00 | 34 | 1018.3 |
| 20260905102641 | 94 | 112 | 4.0 | 7.0 | 0.00 | 0.00 | 0.00 | 36 | 1018.4 |
| 20260905102441 | 95 | 112 | 3.0 | 4.0 | 0.00 | 0.00 | 0.00 | 36 | 1018.6 |
| 20260905102242 | 95 | 180 | 4.0 | 4.0 | 0.00 | 0.00 | 0.00 | 36 | 1018.6 |
| 20260905102046 | 95 | 180 | 2.0 | 4.0 | 0.00 | 0.00 | 0.00 | 37 | 1018.5 |
| 20260905101841 | 94 | 225 | 4.0 | 7.0 | 0.00 | 0.00 | 0.00 | 35 | 1018.6 |
| 20260905101641 | 94 | 158 | 3.0 | 4.0 | 0.00 | 0.00 | 0.00 | 37 | 1018.6 |
| 20260905101442 | 96 | 112 | 4.0 | 6.0 | 0.00 | 0.00 | 0.00 | 36 | 1018.5 |
| 20260905101242 | 97 | 158 | 2.0 | 4.0 | 0.00 | 0.00 | 0.00 | 36 | 1018.5 |
| 20260905100441 | 96 | 248 | 2.0 | 2.0 | 0.00 | 0.00 | 0.00 | 31 | 1018.4 |
| 20260905095842 | 94 | 225 | 2.0 | 4.0 | 0.00 | 0.00 | 0.00 | 30 | 1018.8 |
| 20260905095440 | 95 | 248 | 4.0 | 6.0 | 0.00 | 0.00 | 0.00 | 28 | 1018.7 |
| 20260905095047 | 94 | 135 | 2.0 | 2.0 | 0.00 | 0.00 | 0.00 | 29 | 1018.8 |
| 20260905094841 | 94 | 338 | 2.0 | 2.0 | 0.00 | 0.00 | 0.00 | 28 | 1018.8 |
| 20260905094642 | 96 | 270 | 2.0 | 4.0 | 0.00 | 0.00 | 0.00 | 26 | 1019.0 |
| 20260905094442 | 96 | 248 | 2.0 | 4.0 | 0.00 | 0.00 | 0.00 | 26 | 1018.6 |
| 20260905094244 | 96 | 248 | 2.0 | 4.0 | 0.00 | 0.00 | 0.00 | 26 | 1018.7 |
| 20260905094053 | 96 | 270 | 1.0 | 2.0 | 0.00 | 0.00 | 0.00 | 27 | 1018.6 |
| 20260905093841 | 95 | 225 | 1.0 | 2.0 | 0.00 | 0.00 | 0.00 | 28 | 1018.9 |
| 20260905093641 | 95 | 225 | 2.0 | 4.0 | 0.00 | 0.00 | 0.00 | 28 | 1018.8 |
| 20260905093441 | 96 | 112 | 3.0 | 4.0 | 0.00 | 0.00 | 0.00 | 29 | 1019.1 |
| 20260905093241 | 96 | 225 | 2.0 | 7.0 | 0.00 | 0.00 | 0.00 | 27 | 1019.0 |
| 20260905093049 | 95 | 248 | 1.0 | 2.0 | 0.00 | 0.00 | 0.00 | 28 | 1018.9 |
| 20260905092642 | 95 | 225 | 3.0 | 4.0 | 0.00 | 0.00 | 0.00 | 27 | 1019.0 |
| 20260905092441 | 95 | 225 | 2.0 | 4.0 | 0.00 | 0.00 | 0.00 | 28 | 1018.9 |
| 20260905092242 | 94 | 248 | 2.0 | 4.0 | 0.00 | 0.00 | 0.00 | 29 | 1018.9 |
| 20260905092045 | 94 | 270 | 2.0 | 4.0 | 0.00 | 0.00 | 0.00 | 30 | 1019.0 |
| 20260905091841 | 95 | 270 | 4.0 | 6.0 | 0.00 | 0.00 | 0.00 | 31 | 1019.1 |
| 20260905091641 | 95 | 270 | 2.0 | 2.0 | 0.00 | 0.00 | 0.00 | 28 | 1019.0 |
| 20260905091443 | 95 | 202 | 3.0 | 4.0 | 0.00 | 0.00 | 0.00 | 29 | 1019.1 |
| 20260905091241 | 94 | 135 | 2.0 | 4.0 | 0.00 | 0.00 | 0.00 | 29 | 1019.1 |
| 20260905091050 | 95 | 292 | 2.0 | 4.0 | 0.00 | 0.00 | 0.00 | 28 | 1019.3 |
| 20260905090842 | 95 | 270 | 2.0 | 4.0 | 0.00 | 0.00 | 0.00 | 27 | 1019.1 |
| 20260905090442 | 94 | 248 | 2.0 | 2.0 | 0.00 | 0.00 | 0.00 | 30 | 1019.2 |
| 20260905090241 | 94 | 248 | 2.0 | 4.0 | 0.00 | 0.00 | 0.00 | 29 | 1019.0 |
| 20260905090050 | 94 | 270 | 2.0 | 2.0 | 0.00 | 0.00 | 0.00 | 31 | 1019.1 |
| 20260905085841 | 94 | 90 | 2.0 | 2.0 | 0.00 | 0.00 | 0.00 | 31 | 1019.0 |
| 20260905085643 | 94 | 248 | 1.0 | 2.0 | 0.00 | 0.00 | 0.00 | 29 | 1019.2 |
| 20260905085440 | 94 | 248 | 2.0 | 4.0 | 0.00 | 0.00 | 0.00 | 30 | 1019.2 |
| 20260905085047 | 92 | 292 | 2.0 | 4.0 | 0.00 | 0.00 | 0.00 | 32 | 1019.0 |
| 20260905084842 | 92 | 292 | 2.0 | 2.0 | 0.00 | 0.00 | 0.00 | 30 | 1019.1 |
| 20260905084641 | 91 | 270 | 2.0 | 4.0 | 0.00 | 0.00 | 0.00 | 31 | 1019.3 |
| 20260905084440 | 91 | 292 | 1.0 | 2.0 | 0.00 | 0.00 | 0.00 | 33 | 1019.3 |
| 20260905084240 | 90 | 270 | 2.0 | 4.0 | 0.00 | 0.00 | 0.00 | 35 | 1019.1 |
| 20260905083641 | 90 | 248 | 4.0 | 6.0 | 0.00 | 0.00 | 0.00 | 37 | 1019.2 |
| 20260905083443 | 90 | 270 | 2.0 | 4.0 | 0.00 | 0.00 | 0.00 | 37 | 1019.2 |
| 20260905083240 | 90 | 292 | 2.0 | 4.0 | 0.00 | 0.00 | 0.00 | 38 | 1019.0 |
| 20260905082841 | 89 | 248 | 2.0 | 2.0 | 0.00 | 0.00 | 0.00 | 41 | 1019.0 |
| 20260905082641 | 89 | 270 | 3.0 | 4.0 | 0.00 | 0.00 | 0.00 | 41 | 1019.0 |
| 20260905082442 | 89 | 248 | 4.0 | 4.0 | 0.00 | 0.00 | 0.00 | 41 | 1019.1 |
| 20260905082046 | 89 | 270 | 3.0 | 4.0 | 0.00 | 0.00 | 0.00 | 41 | 1019.3 |
| 20260905081841 | 89 | 292 | 2.0 | 4.0 | 0.00 | 0.00 | 0.00 | 42 | 1019.2 |
| 20260905081643 | 89 | 270 | 3.0 | 4.0 | 0.00 | 0.00 | 0.00 | 43 | 1019.2 |
| 20260905081442 | 89 | 315 | 4.0 | 6.0 | 0.00 | 0.00 | 0.00 | 42 | 1019.5 |
| 20260905081241 | 88 | 270 | 3.0 | 4.0 | 0.00 | 0.00 | 0.00 | 43 | 1019.2 |
| 20260905081050 | 88 | 270 | 3.0 | 4.0 | 0.00 | 0.00 | 0.00 | 42 | 1019.1 |
| 20260905080841 | 87 | 292 | 3.0 | 4.0 | 0.00 | 0.00 | 0.00 | 43 | 1019.3 |
| 20260905080641 | 87 | 292 | 4.0 | 6.0 | 0.00 | 0.00 | 0.00 | 43 | 1019.2 |
| 20260905080443 | 87 | 270 | 4.0 | 4.0 | 0.00 | 0.00 | 0.00 | 43 | 1018.9 |
| 20260905080051 | 86 | 248 | 3.0 | 4.0 | 0.00 | 0.00 | 0.00 | 44 | 1019.0 |
| 20260905075641 | 86 | 225 | 4.0 | 6.0 | 0.00 | 0.00 | 0.00 | 44 | 1019.0 |
| 20260905075443 | 87 | 292 | 5.0 | 6.0 | 0.00 | 0.00 | 0.00 | 43 | 1018.9 |
| 20260905075241 | 86 | 248 | 3.0 | 4.0 | 0.00 | 0.00 | 0.00 | 44 | 1019.1 |
| 20260905074642 | 85 | 292 | 4.0 | 6.0 | 0.00 | 0.00 | 0.00 | 45 | 1018.9 |
| 20260905074441 | 85 | 292 | 4.0 | 4.0 | 0.00 | 0.00 | 0.00 | 45 | 1018.9 |
| 20260905074243 | 85 | 315 | 4.0 | 4.0 | 0.00 | 0.00 | 0.00 | 46 | 1019.1 |
| 20260905074050 | 85 | 292 | 4.0 | 6.0 | 0.00 | 0.00 | 0.00 | 45 | 1018.9 |
| 20260905073841 | 84 | 270 | 4.0 | 7.0 | 0.00 | 0.00 | 0.00 | 44 | 1019.0 |
| 20260905073641 | 84 | 248 | 4.0 | 6.0 | 0.00 | 0.00 | 0.00 | 46 | 1018.8 |
| 20260905073442 | 84 | 338 | 4.0 | 6.0 | 0.00 | 0.00 | 0.00 | 46 | 1019.0 |
| 20260905072842 | 84 | 292 | 5.0 | 8.0 | 0.00 | 0.00 | 0.00 | 46 | 1019.0 |
| 20260905072642 | 83 | 270 | 4.0 | 4.0 | 0.00 | 0.00 | 0.00 | 47 | 1019.0 |
| 20260905072046 | 83 | 292 | 4.0 | 6.0 | 0.00 | 0.00 | 0.00 | 48 | 1018.9 |
| 20260905071842 | 83 | 292 | 4.0 | 6.0 | 0.00 | 0.00 | 0.00 | 48 | 1018.8 |
| 20260905071645 | 83 | 270 | 4.0 | 6.0 | 0.00 | 0.00 | 0.00 | 49 | 1018.9 |
| 20260905071441 | 82 | 270 | 5.0 | 7.0 | 0.00 | 0.00 | 0.00 | 48 | 1018.9 |
| 20260905071242 | 82 | 270 | 5.0 | 8.0 | 0.00 | 0.00 | 0.00 | 49 | 1018.9 |
| 20260905071050 | 82 | 315 | 6.0 | 9.0 | 0.00 | 0.00 | 0.00 | 49 | 1018.9 |
| 20260905070642 | 82 | 270 | 6.0 | 9.0 | 0.00 | 0.00 | 0.00 | 50 | 1018.8 |
| 20260905070441 | 81 | 270 | 4.0 | 8.0 | 0.00 | 0.00 | 0.00 | 50 | 1018.9 |
| 20260905070242 | 81 | 292 | 7.0 | 11.0 | 0.00 | 0.00 | 0.00 | 50 | 1018.8 |
| 20260905070049 | 81 | 270 | 5.0 | 8.0 | 0.00 | 0.00 | 0.00 | 50 | 1019.1 |
| 20260905065841 | 81 | 248 | 6.0 | 8.0 | 0.00 | 0.00 | 0.00 | 50 | 1018.9 |
| 20260905065642 | 81 | 248 | 5.0 | 8.0 | 0.00 | 0.00 | 0.00 | 50 | 1018.9 |
| 20260905065441 | 81 | 270 | 7.0 | 9.0 | 0.00 | 0.00 | 0.00 | 50 | 1018.9 |
| 20260905065241 | 81 | 292 | 6.0 | 8.0 | 0.00 | 0.00 | 0.00 | 51 | 1019.0 |
| 20260905065048 | 81 | 315 | 4.0 | 7.0 | 0.00 | 0.00 | 0.00 | 51 | 1018.8 |
| 20260905064842 | 80 | 292 | 4.0 | 7.0 | 0.00 | 0.00 | 0.00 | 51 | 1018.9 |
| 20260905064643 | 80 | 292 | 6.0 | 8.0 | 0.00 | 0.00 | 0.00 | 52 | 1018.9 |
| 20260905064241 | 80 | 292 | 5.0 | 9.0 | 0.00 | 0.00 | 0.00 | 52 | 1018.8 |
| 20260905064106 | 80 | 270 | 4.0 | 7.0 | 0.00 | 0.00 | 0.00 | 53 | 1018.9 |
| 20260905063841 | 80 | 270 | 6.0 | 7.0 | 0.00 | 0.00 | 0.00 | 53 | 1018.7 |
| 20260905063641 | 80 | 292 | 5.0 | 9.0 | 0.00 | 0.00 | 0.00 | 53 | 1018.9 |
| 20260905063444 | 79 | 292 | 6.0 | 9.0 | 0.00 | 0.00 | 0.00 | 54 | 1018.8 |
| 20260905063242 | 79 | 315 | 4.0 | 6.0 | 0.00 | 0.00 | 0.00 | 55 | 1019.0 |
| 20260905063049 | 79 | 292 | 7.0 | 9.0 | 0.00 | 0.00 | 0.00 | 55 | 1018.8 |
| 20260905062843 | 79 | 270 | 6.0 | 7.0 | 0.00 | 0.00 | 0.00 | 56 | 1018.8 |
| 20260905062643 | 79 | 292 | 6.0 | 9.0 | 0.00 | 0.00 | 0.00 | 56 | 1018.9 |
| 20260905062241 | 78 | 270 | 4.0 | 7.0 | 0.00 | 0.00 | 0.00 | 57 | 1019.0 |
| 20260905061842 | 78 | 270 | 5.0 | 8.0 | 0.00 | 0.00 | 0.00 | 57 | 1018.9 |
| 20260905061641 | 78 | 292 | 5.0 | 7.0 | 0.00 | 0.00 | 0.00 | 57 | 1018.8 |
| 20260905061520 | 78 | 270 | 4.0 | 6.0 | 0.00 | 0.00 | 0.00 | 57 | 1019.0 |
| 20260905061243 | 78 | 270 | 4.0 | 7.0 | 0.00 | 0.00 | 0.00 | 57 | 1018.8 |
| 20260905061049 | 77 | 248 | 5.0 | 6.0 | 0.00 | 0.00 | 0.00 | 57 | 1018.8 |
| 20260905060842 | 77 | 292 | 5.0 | 9.0 | 0.00 | 0.00 | 0.00 | 58 | 1018.8 |
| 20260905060642 | 77 | 270 | 4.0 | 6.0 | 0.00 | 0.00 | 0.00 | 59 | 1018.8 |
| 20260905060442 | 77 | 270 | 5.0 | 7.0 | 0.00 | 0.00 | 0.00 | 58 | 1018.8 |
| 20260905060242 | 76 | 270 | 4.0 | 8.0 | 0.00 | 0.00 | 0.00 | 58 | 1018.9 |
| 20260905060057 | 76 | 292 | 4.0 | 4.0 | 0.00 | 0.00 | 0.00 | 59 | 1018.8 |
| 20260905055841 | 76 | 292 | 4.0 | 7.0 | 0.00 | 0.00 | 0.00 | 59 | 1019.0 |
| 20260905055641 | 76 | 292 | 4.0 | 7.0 | 0.00 | 0.00 | 0.00 | 59 | 1018.9 |
| 20260905055442 | 76 | 270 | 6.0 | 8.0 | 0.00 | 0.00 | 0.00 | 59 | 1019.0 |
| 20260905055244 | 76 | 292 | 5.0 | 7.0 | 0.00 | 0.00 | 0.00 | 59 | 1019.0 |
| 20260905055047 | 76 | 270 | 5.0 | 8.0 | 0.00 | 0.00 | 0.00 | 60 | 1019.0 |
| 20260905054842 | 76 | 270 | 6.0 | 7.0 | 0.00 | 0.00 | 0.00 | 60 | 1019.1 |
| 20260905054647 | 75 | 270 | 4.0 | 6.0 | 0.00 | 0.00 | 0.00 | 60 | 1018.8 |
| 20260905053842 | 75 | 270 | 4.0 | 7.0 | 0.00 | 0.00 | 0.00 | 61 | 1018.8 |
| 20260905053641 | 75 | 292 | 4.0 | 6.0 | 0.00 | 0.00 | 0.00 | 60 | 1018.9 |
| 20260905053441 | 75 | 270 | 3.0 | 4.0 | 0.00 | 0.00 | 0.00 | 60 | 1018.8 |
| 20260905053241 | 75 | 248 | 4.0 | 7.0 | 0.00 | 0.00 | 0.00 | 60 | 1018.8 |
| 20260905053048 | 75 | 315 | 4.0 | 6.0 | 0.00 | 0.00 | 0.00 | 60 | 1019.0 |
| 20260905052841 | 75 | 270 | 3.0 | 4.0 | 0.00 | 0.00 | 0.00 | 60 | 1018.8 |
| 20260905052640 | 75 | 292 | 3.0 | 4.0 | 0.00 | 0.00 | 0.00 | 60 | 1019.0 |
| 20260905052441 | 75 | 270 | 4.0 | 4.0 | 0.00 | 0.00 | 0.00 | 60 | 1019.1 |
| 20260905052241 | 75 | 270 | 3.0 | 4.0 | 0.00 | 0.00 | 0.00 | 60 | 1018.9 |
| 20260905051841 | 74 | 292 | 4.0 | 6.0 | 0.00 | 0.00 | 0.00 | 60 | 1018.9 |
| 20260905051642 | 74 | 315 | 4.0 | 6.0 | 0.00 | 0.00 | 0.00 | 61 | 1019.0 |
| 20260905051441 | 74 | 292 | 4.0 | 6.0 | 0.00 | 0.00 | 0.00 | 61 | 1019.0 |
| 20260905051241 | 74 | 248 | 4.0 | 6.0 | 0.00 | 0.00 | 0.00 | 61 | 1018.8 |
| 20260905051052 | 73 | 292 | 4.0 | 7.0 | 0.00 | 0.00 | 0.00 | 62 | 1019.0 |
| 20260905050840 | 73 | 292 | 4.0 | 6.0 | 0.00 | 0.00 | 0.00 | 63 | 1018.8 |
| 20260905050642 | 72 | 292 | 4.0 | 4.0 | 0.00 | 0.00 | 0.00 | 63 | 1018.8 |
| 20260905050241 | 72 | 270 | 4.0 | 6.0 | 0.00 | 0.00 | 0.00 | 64 | 1019.0 |
| 20260905045841 | 72 | 248 | 4.0 | 4.0 | 0.00 | 0.00 | 0.00 | 65 | 1018.8 |
| 20260905045642 | 72 | 270 | 4.0 | 4.0 | 0.00 | 0.00 | 0.00 | 65 | 1018.9 |
| 20260905045442 | 72 | 270 | 2.0 | 4.0 | 0.00 | 0.00 | 0.00 | 65 | 1018.8 |
| 20260905045241 | 72 | 270 | 4.0 | 4.0 | 0.00 | 0.00 | 0.00 | 65 | 1018.9 |
| 20260905045044 | 72 | 270 | 4.0 | 6.0 | 0.00 | 0.00 | 0.00 | 65 | 1019.0 |
| 20260905044842 | 72 | 270 | 4.0 | 4.0 | 0.00 | 0.00 | 0.00 | 65 | 1018.6 |
| 20260905044642 | 73 | 248 | 3.0 | 4.0 | 0.00 | 0.00 | 0.00 | 64 | 1018.7 |
| 20260905044442 | 73 | 248 | 3.0 | 4.0 | 0.00 | 0.00 | 0.00 | 63 | 1018.8 |
| 20260905044242 | 73 | 248 | 3.0 | 4.0 | 0.00 | 0.00 | 0.00 | 62 | 1018.6 |
| 20260905044052 | 73 | 270 | 4.0 | 4.0 | 0.00 | 0.00 | 0.00 | 62 | 1018.7 |
| 20260905043641 | 73 | 270 | 4.0 | 7.0 | 0.00 | 0.00 | 0.00 | 61 | 1018.7 |
| 20260905043442 | 73 | 315 | 4.0 | 8.0 | 0.00 | 0.00 | 0.00 | 62 | 1018.7 |
| 20260905043059 | 72 | 292 | 4.0 | 6.0 | 0.00 | 0.00 | 0.00 | 63 | 1018.6 |
| 20260905042842 | 72 | 292 | 4.0 | 7.0 | 0.00 | 0.00 | 0.00 | 63 | 1018.5 |
| 20260905042644 | 72 | 270 | 2.0 | 4.0 | 0.00 | 0.00 | 0.00 | 63 | 1018.6 |
| 20260905042241 | 72 | 270 | 3.0 | 4.0 | 0.00 | 0.00 | 0.00 | 64 | 1018.7 |
| 20260905042046 | 72 | 292 | 4.0 | 6.0 | 0.00 | 0.00 | 0.00 | 64 | 1018.6 |
| 20260905041641 | 72 | 292 | 3.0 | 4.0 | 0.00 | 0.00 | 0.00 | 64 | 1018.7 |
| 20260905041442 | 72 | 292 | 4.0 | 4.0 | 0.00 | 0.00 | 0.00 | 65 | 1018.7 |
| 20260905041242 | 72 | 270 | 4.0 | 6.0 | 0.00 | 0.00 | 0.00 | 65 | 1018.5 |
| 20260905041100 | 71 | 315 | 4.0 | 7.0 | 0.00 | 0.00 | 0.00 | 65 | 1018.5 |
| 20260905040842 | 71 | 292 | 4.0 | 7.0 | 0.00 | 0.00 | 0.00 | 66 | 1018.6 |
| 20260905040642 | 71 | 292 | 3.0 | 4.0 | 0.00 | 0.00 | 0.00 | 67 | 1018.5 |
| 20260905040049 | 71 | 292 | 2.0 | 2.0 | 0.00 | 0.00 | 0.00 | 67 | 1018.6 |
| 20260905035842 | 71 | 270 | 2.0 | 4.0 | 0.00 | 0.00 | 0.00 | 67 | 1018.6 |
| 20260905035641 | 71 | 270 | 2.0 | 4.0 | 0.00 | 0.00 | 0.00 | 67 | 1018.5 |
| 20260905035442 | 71 | 292 | 2.0 | 4.0 | 0.00 | 0.00 | 0.00 | 68 | 1018.5 |
| 20260905035241 | 71 | 292 | 2.0 | 4.0 | 0.00 | 0.00 | 0.00 | 68 | 1018.7 |
| 20260905035045 | 70 | 270 | 3.0 | 4.0 | 0.00 | 0.00 | 0.00 | 68 | 1018.5 |
| 20260905034841 | 70 | 270 | 3.0 | 4.0 | 0.00 | 0.00 | 0.00 | 69 | 1018.7 |
| 20260905034642 | 70 | 292 | 3.0 | 4.0 | 0.00 | 0.00 | 0.00 | 69 | 1018.4 |
| 20260905034441 | 70 | 270 | 3.0 | 4.0 | 0.00 | 0.00 | 0.00 | 69 | 1018.5 |
| 20260905034243 | 71 | 292 | 4.0 | 4.0 | 0.00 | 0.00 | 0.00 | 69 | 1018.4 |
| 20260905034052 | 71 | 292 | 3.0 | 4.0 | 0.00 | 0.00 | 0.00 | 68 | 1018.5 |
| 20260905033841 | 71 | 270 | 4.0 | 6.0 | 0.00 | 0.00 | 0.00 | 68 | 1018.6 |
| 20260905033640 | 71 | 248 | 4.0 | 6.0 | 0.00 | 0.00 | 0.00 | 68 | 1018.4 |
| 20260905033241 | 71 | 270 | 3.0 | 6.0 | 0.00 | 0.00 | 0.00 | 67 | 1018.6 |
| 20260905033048 | 71 | 292 | 3.0 | 4.0 | 0.00 | 0.00 | 0.00 | 67 | 1018.6 |
| 20260905032641 | 71 | 292 | 3.0 | 6.0 | 0.00 | 0.00 | 0.00 | 67 | 1018.6 |
| 20260905032441 | 71 | 292 | 3.0 | 4.0 | 0.00 | 0.00 | 0.00 | 67 | 1018.4 |
| 20260905032044 | 70 | 315 | 4.0 | 6.0 | 0.00 | 0.00 | 0.00 | 69 | 1018.4 |
| 20260905031841 | 70 | 270 | 4.0 | 6.0 | 0.00 | 0.00 | 0.00 | 69 | 1018.6 |
| 20260905031641 | 70 | 248 | 4.0 | 4.0 | 0.00 | 0.00 | 0.00 | 70 | 1018.6 |
| 20260905031441 | 70 | 270 | 3.0 | 4.0 | 0.00 | 0.00 | 0.00 | 70 | 1018.6 |
| 20260905031241 | 70 | 248 | 3.0 | 4.0 | 0.00 | 0.00 | 0.00 | 70 | 1018.6 |
| 20260905031049 | 70 | 270 | 4.0 | 6.0 | 0.00 | 0.00 | 0.00 | 69 | 1018.7 |
| 20260905030840 | 70 | 248 | 4.0 | 6.0 | 0.00 | 0.00 | 0.00 | 70 | 1018.4 |
| 20260905030641 | 70 | 270 | 4.0 | 6.0 | 0.00 | 0.00 | 0.00 | 70 | 1018.6 |
| 20260905030441 | 70 | 270 | 3.0 | 4.0 | 0.00 | 0.00 | 0.00 | 69 | 1018.4 |
| 20260905025841 | 71 | 270 | 4.0 | 6.0 | 0.00 | 0.00 | 0.00 | 69 | 1018.5 |
| 20260905025641 | 71 | 248 | 3.0 | 4.0 | 0.00 | 0.00 | 0.00 | 69 | 1018.5 |
| 20260905025442 | 71 | 248 | 4.0 | 4.0 | 0.00 | 0.00 | 0.00 | 68 | 1018.5 |
| 20260905025241 | 71 | 270 | 3.0 | 4.0 | 0.00 | 0.00 | 0.00 | 68 | 1018.5 |
| 20260905025045 | 72 | 270 | 4.0 | 6.0 | 0.00 | 0.00 | 0.00 | 67 | 1018.4 |
| 20260905024842 | 72 | 270 | 4.0 | 6.0 | 0.00 | 0.00 | 0.00 | 66 | 1018.4 |
| 20260905024642 | 72 | 270 | 4.0 | 6.0 | 0.00 | 0.00 | 0.00 | 65 | 1018.3 |
| 20260905024442 | 72 | 270 | 3.0 | 4.0 | 0.00 | 0.00 | 0.00 | 65 | 1018.4 |
| 20260905024047 | 72 | 292 | 3.0 | 4.0 | 0.00 | 0.00 | 0.00 | 66 | 1018.4 |
| 20260905023841 | 72 | 292 | 4.0 | 6.0 | 0.00 | 0.00 | 0.00 | 66 | 1018.4 |
| 20260905023642 | 72 | 292 | 4.0 | 4.0 | 0.00 | 0.00 | 0.00 | 66 | 1018.4 |
| 20260905023441 | 71 | 270 | 4.0 | 7.0 | 0.00 | 0.00 | 0.00 | 67 | 1018.4 |
| 20260905023241 | 71 | 292 | 4.0 | 7.0 | 0.00 | 0.00 | 0.00 | 67 | 1018.4 |
| 20260905023047 | 71 | 270 | 4.0 | 7.0 | 0.00 | 0.00 | 0.00 | 67 | 1018.5 |
| 20260905022843 | 71 | 270 | 4.0 | 6.0 | 0.00 | 0.00 | 0.00 | 68 | 1018.4 |
| 20260905022641 | 71 | 292 | 4.0 | 6.0 | 0.00 | 0.00 | 0.00 | 67 | 1018.6 |
| 20260905022441 | 71 | 270 | 4.0 | 6.0 | 0.00 | 0.00 | 0.00 | 67 | 1018.4 |
| 20260905022244 | 71 | 315 | 4.0 | 7.0 | 0.00 | 0.00 | 0.00 | 67 | 1018.3 |
| 20260905022047 | 71 | 292 | 3.0 | 4.0 | 0.00 | 0.00 | 0.00 | 68 | 1018.3 |
| 20260905021643 | 71 | 315 | 4.0 | 6.0 | 0.00 | 0.00 | 0.00 | 68 | 1018.5 |
| 20260905021441 | 71 | 292 | 4.0 | 7.0 | 0.00 | 0.00 | 0.00 | 68 | 1018.3 |
| 20260905021048 | 71 | 248 | 4.0 | 6.0 | 0.00 | 0.00 | 0.00 | 69 | 1018.5 |
| 20260905020841 | 71 | 270 | 4.0 | 6.0 | 0.00 | 0.00 | 0.00 | 68 | 1018.4 |
| 20260905020643 | 71 | 315 | 3.0 | 4.0 | 0.00 | 0.00 | 0.00 | 68 | 1018.6 |
| 20260905020442 | 71 | 315 | 2.0 | 4.0 | 0.00 | 0.00 | 0.00 | 68 | 1018.5 |
| 20260905020243 | 71 | 270 | 3.0 | 4.0 | 0.00 | 0.00 | 0.00 | 67 | 1018.5 |
| 20260905020059 | 71 | 270 | 2.0 | 4.0 | 0.00 | 0.00 | 0.00 | 68 | 1018.4 |
| 20260905015842 | 71 | 270 | 3.0 | 4.0 | 0.00 | 0.00 | 0.00 | 68 | 1018.5 |
| 20260905015642 | 71 | 248 | 3.0 | 4.0 | 0.00 | 0.00 | 0.00 | 68 | 1018.3 |
| 20260905015442 | 71 | 270 | 4.0 | 6.0 | 0.00 | 0.00 | 0.00 | 68 | 1018.4 |
| 20260905015243 | 71 | 292 | 4.0 | 6.0 | 0.00 | 0.00 | 0.00 | 69 | 1018.6 |
| 20260905015045 | 71 | 292 | 3.0 | 4.0 | 0.00 | 0.00 | 0.00 | 68 | 1018.6 |
| 20260905014441 | 71 | 270 | 2.0 | 4.0 | 0.00 | 0.00 | 0.00 | 68 | 1018.6 |
| 20260905014048 | 71 | 292 | 3.0 | 4.0 | 0.00 | 0.00 | 0.00 | 69 | 1018.6 |
| 20260905013842 | 70 | 270 | 2.0 | 4.0 | 0.00 | 0.00 | 0.00 | 69 | 1018.6 |
| 20260905013642 | 70 | 292 | 2.0 | 2.0 | 0.00 | 0.00 | 0.00 | 69 | 1018.6 |
| 20260905013243 | 70 | 292 | 2.0 | 2.0 | 0.00 | 0.00 | 0.00 | 69 | 1018.6 |
| 20260905013049 | 70 | 292 | 2.0 | 4.0 | 0.00 | 0.00 | 0.00 | 69 | 1018.6 |
| 20260905012842 | 70 | 292 | 3.0 | 4.0 | 0.00 | 0.00 | 0.00 | 69 | 1018.5 |
| 20260905012645 | 70 | 292 | 2.0 | 2.0 | 0.00 | 0.00 | 0.00 | 69 | 1018.6 |
| 20260905012442 | 71 | 292 | 1.0 | 2.0 | 0.00 | 0.00 | 0.00 | 68 | 1018.6 |
| 20260905012242 | 71 | 292 | 3.0 | 4.0 | 0.00 | 0.00 | 0.00 | 68 | 1018.5 |
| 20260905011842 | 70 | 292 | 2.0 | 4.0 | 0.00 | 0.00 | 0.00 | 69 | 1018.5 |
| 20260905011643 | 70 | 292 | 3.0 | 4.0 | 0.00 | 0.00 | 0.00 | 69 | 1018.6 |
| 20260905011442 | 71 | 292 | 2.0 | 4.0 | 0.00 | 0.00 | 0.00 | 69 | 1018.6 |
| 20260905011243 | 71 | 292 | 2.0 | 2.0 | 0.00 | 0.00 | 0.00 | 68 | 1018.6 |
| 20260905011051 | 71 | 292 | 1.0 | 2.0 | 0.00 | 0.00 | 0.00 | 67 | 1018.5 |
| 20260905010842 | 71 | 292 | 1.0 | 2.0 | 0.00 | 0.00 | 0.00 | 67 | 1018.7 |
| 20260905010640 | 71 | 292 | 2.0 | 4.0 | 0.00 | 0.00 | 0.00 | 67 | 1018.4 |
| 20260905010442 | 71 | 292 | 2.0 | 4.0 | 0.00 | 0.00 | 0.00 | 67 | 1018.6 |
| 20260905005841 | 71 | 292 | 2.0 | 2.0 | 0.00 | 0.00 | 0.00 | 67 | 1018.3 |
| 20260905005447 | 71 | 315 | 2.0 | 4.0 | 0.00 | 0.00 | 0.00 | 68 | 1018.5 |
| 20260905005244 | 71 | 292 | 2.0 | 2.0 | 0.00 | 0.00 | 0.00 | 68 | 1018.4 |
| 20260905005047 | 70 | 292 | 3.0 | 4.0 | 0.00 | 0.00 | 0.00 | 69 | 1018.6 |
| 20260905004843 | 70 | 292 | 2.0 | 4.0 | 0.00 | 0.00 | 0.00 | 70 | 1018.6 |
| 20260905004642 | 70 | 270 | 2.0 | 2.0 | 0.00 | 0.00 | 0.00 | 70 | 1018.8 |
| 20260905004443 | 70 | 292 | 2.0 | 4.0 | 0.00 | 0.00 | 0.00 | 70 | 1018.7 |
| 20260905004243 | 70 | 292 | 1.0 | 2.0 | 0.00 | 0.00 | 0.00 | 70 | 1018.6 |
| 20260905003841 | 70 | 292 | 2.0 | 2.0 | 0.00 | 0.00 | 0.00 | 69 | 1018.6 |
| 20260905003642 | 70 | 292 | 1.0 | 2.0 | 0.00 | 0.00 | 0.00 | 69 | 1018.5 |
| 20260905003443 | 71 | 270 | 1.0 | 2.0 | 0.00 | 0.00 | 0.00 | 69 | 1018.7 |
| 20260905003049 | 71 | 292 | 2.0 | 2.0 | 0.00 | 0.00 | 0.00 | 69 | 1018.7 |
| 20260905002845 | 71 | 270 | 2.0 | 4.0 | 0.00 | 0.00 | 0.00 | 69 | 1018.8 |
| 20260905002644 | 70 | 292 | 2.0 | 4.0 | 0.00 | 0.00 | 0.00 | 70 | 1018.7 |
| 20260905002442 | 70 | 270 | 3.0 | 4.0 | 0.00 | 0.00 | 0.00 | 70 | 1018.5 |
| 20260905002243 | 70 | 292 | 2.0 | 2.0 | 0.00 | 0.00 | 0.00 | 71 | 1018.5 |
| 20260905002047 | 70 | 292 | 2.0 | 2.0 | 0.00 | 0.00 | 0.00 | 71 | 1018.6 |
| 20260905001843 | 69 | 292 | 2.0 | 2.0 | 0.00 | 0.00 | 0.00 | 71 | 1018.7 |
| 20260905001643 | 69 | 270 | 2.0 | 2.0 | 0.00 | 0.00 | 0.00 | 71 | 1018.6 |
| 20260905001442 | 69 | 270 | 1.0 | 2.0 | 0.00 | 0.00 | 0.00 | 71 | 1018.5 |
| 20260905001242 | 70 | 270 | 1.0 | 2.0 | 0.00 | 0.00 | 0.00 | 71 | 1018.5 |
| 20260905001049 | 70 | 248 | 1.0 | 2.0 | 0.00 | 0.00 | 0.00 | 70 | 1018.8 |
| 20260905000842 | 70 | 270 | 2.0 | 2.0 | 0.00 | 0.00 | 0.00 | 70 | 1018.6 |
| 20260905000641 | 71 | 292 | 2.0 | 2.0 | 0.00 | 0.00 | 0.00 | 69 | 1018.7 |
| 20260905000442 | 71 | 292 | 2.0 | 2.0 | 0.00 | 0.00 | 0.00 | 69 | 1018.8 |
| 20260905000242 | 71 | 292 | 2.0 | 2.0 | 0.00 | 0.00 | 0.00 | 69 | 1018.7 |
| 20260905000050 | 71 | 292 | 2.0 | 2.0 | 0.00 | 0.00 | 0.00 | 69 | 1018.6 |
| 20260904235842 | 70 | 292 | 1.0 | 2.0 | 0.00 | 0.00 | 0.00 | 69 | 1018.7 |
| 20260904235441 | 70 | 292 | 1.0 | 2.0 | 0.00 | 0.00 | 0.00 | 69 | 1018.6 |
| 20260904235045 | 70 | 270 | 1.0 | 2.0 | 0.00 | 0.00 | 0.00 | 69 | 1018.7 |
| 20260904234842 | 70 | 270 | 2.0 | 2.0 | 0.00 | 0.00 | 0.00 | 69 | 1018.8 |
| 20260904234642 | 70 | 248 | 2.0 | 2.0 | 0.00 | 0.00 | 0.00 | 68 | 1018.9 |
| 20260904234442 | 70 | 248 | 2.0 | 2.0 | 0.00 | 0.00 | 0.00 | 68 | 1018.8 |
| 20260904234243 | 71 | 225 | 1.0 | 2.0 | 0.00 | 0.00 | 0.00 | 68 | 1018.7 |
| 20260904234109 | 71 | 270 | 1.0 | 2.0 | 0.00 | 0.00 | 0.00 | 67 | 1018.8 |
| 20260904233641 | 71 | 292 | 2.0 | 4.0 | 0.00 | 0.00 | 0.00 | 66 | 1018.8 |
| 20260904233442 | 71 | 292 | 2.0 | 2.0 | 0.00 | 0.00 | 0.00 | 66 | 1018.6 |
| 20260904233243 | 71 | 292 | 2.0 | 2.0 | 0.00 | 0.00 | 0.00 | 67 | 1018.7 |
| 20260904233049 | 71 | 292 | 2.0 | 2.0 | 0.00 | 0.00 | 0.00 | 67 | 1018.7 |
| 20260904232242 | 72 | 248 | 2.0 | 2.0 | 0.00 | 0.00 | 0.00 | 66 | 1018.7 |
| 20260904231443 | 72 | 270 | 1.0 | 2.0 | 0.00 | 0.00 | 0.00 | 65 | 1018.6 |
| 20260904231244 | 72 | 270 | 1.0 | 2.0 | 0.00 | 0.00 | 0.00 | 64 | 1018.9 |
| 20260904231057 | 72 | 248 | 2.0 | 2.0 | 0.00 | 0.00 | 0.00 | 64 | 1018.6 |
| 20260904230842 | 72 | 270 | 2.0 | 2.0 | 0.00 | 0.00 | 0.00 | 64 | 1018.7 |
| 20260904230643 | 73 | 270 | 3.0 | 4.0 | 0.00 | 0.00 | 0.00 | 64 | 1018.7 |
| 20260904225443 | 74 | 292 | 1.0 | 2.0 | 0.00 | 0.00 | 0.00 | 61 | 1018.9 |
| 20260904225243 | 75 | 292 | 2.0 | 2.0 | 0.00 | 0.00 | 0.00 | 61 | 1018.9 |
| 20260904225047 | 74 | 270 | 3.0 | 4.0 | 0.00 | 0.00 | 0.00 | 60 | 1018.8 |
| 20260904224843 | 74 | 292 | 2.0 | 4.0 | 0.00 | 0.00 | 0.00 | 60 | 1018.8 |
| 20260904224443 | 74 | 292 | 2.0 | 4.0 | 0.00 | 0.00 | 0.00 | 62 | 1018.8 |
| 20260904224049 | 74 | 292 | 3.0 | 4.0 | 0.00 | 0.00 | 0.00 | 63 | 1018.6 |
| 20260904223843 | 73 | 270 | 3.0 | 4.0 | 0.00 | 0.00 | 0.00 | 62 | 1018.8 |
| 20260904223643 | 73 | 270 | 4.0 | 4.0 | 0.00 | 0.00 | 0.00 | 63 | 1018.7 |
| 20260904223443 | 73 | 315 | 4.0 | 4.0 | 0.00 | 0.00 | 0.00 | 63 | 1018.8 |
| 20260904223243 | 73 | 292 | 3.0 | 4.0 | 0.00 | 0.00 | 0.00 | 63 | 1018.7 |
| 20260904223049 | 73 | 270 | 4.0 | 6.0 | 0.00 | 0.00 | 0.00 | 62 | 1018.5 |
| 20260904222842 | 73 | 292 | 4.0 | 6.0 | 0.00 | 0.00 | 0.00 | 62 | 1018.7 |
| 20260904222644 | 73 | 292 | 3.0 | 4.0 | 0.00 | 0.00 | 0.00 | 62 | 1018.6 |
| 20260904222443 | 73 | 270 | 4.0 | 7.0 | 0.00 | 0.00 | 0.00 | 62 | 1018.7 |
| 20260904222244 | 73 | 270 | 4.0 | 6.0 | 0.00 | 0.00 | 0.00 | 63 | 1018.8 |
| 20260904221842 | 73 | 292 | 2.0 | 4.0 | 0.00 | 0.00 | 0.00 | 63 | 1018.6 |
| 20260904221642 | 73 | 292 | 3.0 | 4.0 | 0.00 | 0.00 | 0.00 | 63 | 1018.6 |
| 20260904221442 | 73 | 292 | 2.0 | 4.0 | 0.00 | 0.00 | 0.00 | 63 | 1018.6 |
| 20260904221244 | 74 | 270 | 3.0 | 4.0 | 0.00 | 0.00 | 0.00 | 62 | 1018.8 |
| 20260904221051 | 74 | 270 | 2.0 | 4.0 | 0.00 | 0.00 | 0.00 | 61 | 1018.5 |
| 20260904220841 | 75 | 248 | 2.0 | 4.0 | 0.00 | 0.00 | 0.00 | 59 | 1018.7 |
| 20260904220643 | 75 | 292 | 2.0 | 2.0 | 0.00 | 0.00 | 0.00 | 57 | 1018.7 |
| 20260904220444 | 74 | 292 | 2.0 | 4.0 | 0.00 | 0.00 | 0.00 | 57 | 1018.8 |
| 20260904220253 | 74 | 292 | 3.0 | 4.0 | 0.00 | 0.00 | 0.00 | 58 | 1018.6 |
| 20260904220052 | 74 | 292 | 4.0 | 4.0 | 0.00 | 0.00 | 0.00 | 59 | 1018.6 |
| 20260904215842 | 73 | 0 | 3.0 | 4.0 | 0.00 | 0.00 | 0.00 | 60 | 1018.7 |
| 20260904215643 | 72 | 315 | 3.0 | 4.0 | 0.00 | 0.00 | 0.00 | 62 | 1018.8 |
| 20260904215443 | 72 | 292 | 1.0 | 2.0 | 0.00 | 0.00 | 0.00 | 66 | 1018.6 |
| 20260904215244 | 72 | 292 | 2.0 | 2.0 | 0.00 | 0.00 | 0.00 | 66 | 1018.8 |
| 20260904215046 | 72 | 315 | 1.0 | 2.0 | 0.00 | 0.00 | 0.00 | 67 | 1018.7 |
| 20260904214842 | 72 | 315 | 0.0 | 2.0 | 0.00 | 0.00 | 0.00 | 66 | 1018.8 |
| 20260904214643 | 72 | 270 | 1.0 | 2.0 | 0.00 | 0.00 | 0.00 | 66 | 1018.8 |
| 20260904214444 | 72 | 270 | 0.0 | 0.0 | 0.00 | 0.00 | 0.00 | 66 | 1018.8 |
| 20260904214050 | 72 | 270 | 1.0 | 2.0 | 0.00 | 0.00 | 0.00 | 64 | 1018.8 |
| 20260904213641 | 72 | 270 | 0.0 | 0.0 | 0.00 | 0.00 | 0.00 | 65 | 1018.7 |
| 20260904213441 | 72 | 292 | 0.0 | 0.0 | 0.00 | 0.00 | 0.00 | 65 | 1018.7 |
| 20260904213242 | 72 | 270 | 1.0 | 2.0 | 0.00 | 0.00 | 0.00 | 65 | 1018.8 |
| 20260904213048 | 72 | 270 | 2.0 | 2.0 | 0.00 | 0.00 | 0.00 | 65 | 1018.8 |
| 20260904212642 | 73 | 270 | 1.0 | 2.0 | 0.00 | 0.00 | 0.00 | 65 | 1018.8 |
| 20260904212442 | 73 | 248 | 2.0 | 2.0 | 0.00 | 0.00 | 0.00 | 65 | 1018.7 |
| 20260904212244 | 74 | 248 | 0.0 | 0.0 | 0.00 | 0.00 | 0.00 | 64 | 1018.6 |
| 20260904212047 | 74 | 248 | 0.0 | 0.0 | 0.00 | 0.00 | 0.00 | 63 | 1018.6 |
| 20260904211841 | 74 | 270 | 0.0 | 2.0 | 0.00 | 0.00 | 0.00 | 62 | 1018.6 |
| 20260904211642 | 74 | 270 | 2.0 | 2.0 | 0.00 | 0.00 | 0.00 | 62 | 1018.6 |
| 20260904211442 | 74 | 270 | 2.0 | 2.0 | 0.00 | 0.00 | 0.00 | 60 | 1018.7 |
| 20260904210842 | 74 | 292 | 2.0 | 4.0 | 0.00 | 0.00 | 0.00 | 59 | 1018.8 |
| 20260904210642 | 74 | 315 | 2.0 | 2.0 | 0.00 | 0.00 | 0.00 | 60 | 1018.6 |
| 20260904210050 | 74 | 292 | 2.0 | 2.0 | 0.00 | 0.00 | 0.00 | 61 | 1018.5 |
| 20260904205645 | 74 | 315 | 2.0 | 4.0 | 0.00 | 0.00 | 0.00 | 60 | 1018.6 |
| 20260904205442 | 75 | 315 | 2.0 | 2.0 | 0.00 | 0.00 | 0.00 | 60 | 1018.7 |
| 20260904205243 | 75 | 292 | 2.0 | 2.0 | 0.00 | 0.00 | 0.00 | 59 | 1018.7 |
| 20260904205045 | 74 | 315 | 2.0 | 4.0 | 0.00 | 0.00 | 0.00 | 59 | 1018.7 |
| 20260904204844 | 74 | 315 | 0.0 | 2.0 | 0.00 | 0.00 | 0.00 | 61 | 1018.7 |
| 20260904204642 | 74 | 315 | 1.0 | 2.0 | 0.00 | 0.00 | 0.00 | 61 | 1018.6 |
| 20260904204443 | 74 | 292 | 2.0 | 2.0 | 0.00 | 0.00 | 0.00 | 61 | 1018.8 |
| 20260904204245 | 74 | 292 | 2.0 | 2.0 | 0.00 | 0.00 | 0.00 | 61 | 1018.9 |
| 20260904204055 | 74 | 292 | 2.0 | 2.0 | 0.00 | 0.00 | 0.00 | 60 | 1018.7 |
| 20260904203843 | 74 | 315 | 2.0 | 2.0 | 0.00 | 0.00 | 0.00 | 60 | 1018.7 |
| 20260904203642 | 75 | 292 | 2.0 | 2.0 | 0.00 | 0.00 | 0.00 | 60 | 1018.8 |
| 20260904203442 | 75 | 292 | 2.0 | 2.0 | 0.00 | 0.00 | 0.00 | 59 | 1018.8 |
| 20260904203245 | 75 | 315 | 1.0 | 2.0 | 0.00 | 0.00 | 0.00 | 59 | 1018.8 |
| 20260904203048 | 75 | 315 | 0.0 | 2.0 | 0.00 | 0.00 | 0.00 | 59 | 1018.6 |
| 20260904202842 | 75 | 315 | 0.0 | 0.0 | 0.00 | 0.00 | 0.00 | 59 | 1018.8 |
| 20260904202645 | 75 | 315 | 0.0 | 0.0 | 0.00 | 0.00 | 0.00 | 59 | 1018.8 |
| 20260904202442 | 75 | 292 | 0.0 | 2.0 | 0.00 | 0.00 | 0.00 | 59 | 1018.8 |
| 20260904202243 | 76 | 315 | 2.0 | 2.0 | 0.00 | 0.00 | 0.00 | 58 | 1018.8 |
| 20260904202045 | 76 | 315 | 2.0 | 2.0 | 0.00 | 0.00 | 0.00 | 59 | 1018.7 |
| 20260904201443 | 78 | 292 | 0.0 | 0.0 | 0.00 | 0.00 | 0.00 | 56 | 1018.8 |
| 20260904201244 | 79 | 292 | 0.0 | 0.0 | 0.00 | 0.00 | 0.00 | 54 | 1018.7 |
| 20260904201050 | 80 | 270 | 0.0 | 0.0 | 0.00 | 0.00 | 0.00 | 50 | 1018.7 |
| 20260904200843 | 80 | 292 | 0.0 | 0.0 | 0.00 | 0.00 | 0.00 | 49 | 1019.0 |
| 20260904200642 | 79 | 292 | 0.0 | 0.0 | 0.00 | 0.00 | 0.00 | 47 | 1018.9 |
| 20260904200443 | 78 | 292 | 0.0 | 0.0 | 0.00 | 0.00 | 0.00 | 48 | 1018.6 |
| 20260904200243 | 78 | 292 | 0.0 | 0.0 | 0.00 | 0.00 | 0.00 | 51 | 1018.8 |
| 20260904200049 | 78 | 338 | 0.0 | 0.0 | 0.00 | 0.00 | 0.00 | 52 | 1018.8 |
| 20260904195644 | 78 | 292 | 0.0 | 2.0 | 0.00 | 0.00 | 0.00 | 52 | 1018.8 |
| 20260904195442 | 78 | 292 | 1.0 | 2.0 | 0.00 | 0.00 | 0.00 | 52 | 1018.7 |
| 20260904195244 | 78 | 292 | 1.0 | 2.0 | 0.00 | 0.00 | 0.00 | 51 | 1018.9 |
| 20260904195045 | 78 | 292 | 1.0 | 2.0 | 0.00 | 0.00 | 0.00 | 53 | 1018.7 |
| 20260904194843 | 78 | 270 | 0.0 | 2.0 | 0.00 | 0.00 | 0.00 | 52 | 1018.9 |
| 20260904194642 | 78 | 270 | 2.0 | 2.0 | 0.00 | 0.00 | 0.00 | 51 | 1018.9 |
| 20260904194049 | 78 | 270 | 0.0 | 2.0 | 0.00 | 0.00 | 0.00 | 52 | 1018.7 |
| 20260904193841 | 79 | 248 | 0.0 | 2.0 | 0.00 | 0.00 | 0.00 | 52 | 1018.7 |
| 20260904193642 | 79 | 248 | 2.0 | 2.0 | 0.00 | 0.00 | 0.00 | 51 | 1018.7 |
| 20260904193442 | 80 | 248 | 2.0 | 2.0 | 0.00 | 0.00 | 0.00 | 49 | 1018.9 |
| 20260904193243 | 80 | 292 | 2.0 | 2.0 | 0.00 | 0.00 | 0.00 | 47 | 1018.8 |
| 20260904193102 | 81 | 315 | 0.0 | 2.0 | 0.00 | 0.00 | 0.00 | 47 | 1018.7 |
| 20260904192643 | 81 | 338 | 1.0 | 2.0 | 0.00 | 0.00 | 0.00 | 45 | 1018.8 |
| 20260904192442 | 80 | 0 | 1.0 | 2.0 | 0.00 | 0.00 | 0.00 | 45 | 1018.6 |
| 20260904192243 | 80 | 338 | 1.0 | 2.0 | 0.00 | 0.00 | 0.00 | 46 | 1018.6 |
| 20260904192047 | 80 | 0 | 1.0 | 2.0 | 0.00 | 0.00 | 0.00 | 46 | 1018.5 |
| 20260904191844 | 80 | 338 | 2.0 | 2.0 | 0.00 | 0.00 | 0.00 | 47 | 1018.6 |
| 20260904191644 | 80 | 0 | 1.0 | 2.0 | 0.00 | 0.00 | 0.00 | 47 | 1018.7 |
| 20260904191443 | 80 | 22 | 1.0 | 2.0 | 0.00 | 0.00 | 0.00 | 47 | 1018.9 |
| 20260904191244 | 80 | 338 | 1.0 | 2.0 | 0.00 | 0.00 | 0.00 | 47 | 1018.8 |
| 20260904191056 | 81 | 0 | 0.0 | 0.0 | 0.00 | 0.00 | 0.00 | 47 | 1018.7 |
| 20260904190642 | 81 | 0 | 0.0 | 2.0 | 0.00 | 0.00 | 0.00 | 46 | 1018.7 |
| 20260904190242 | 81 | 0 | 2.0 | 2.0 | 0.00 | 0.00 | 0.00 | 45 | 1018.7 |
| 20260904190049 | 81 | 338 | 2.0 | 2.0 | 0.00 | 0.00 | 0.00 | 45 | 1018.8 |
| 20260904185841 | 81 | 22 | 1.0 | 2.0 | 0.00 | 0.00 | 0.00 | 46 | 1018.7 |
| 20260904185643 | 81 | 338 | 2.0 | 2.0 | 0.00 | 0.00 | 0.00 | 46 | 1018.6 |
| 20260904185443 | 81 | 315 | 1.0 | 2.0 | 0.00 | 0.00 | 0.00 | 46 | 1018.5 |
| 20260904185044 | 82 | 338 | 1.0 | 2.0 | 0.00 | 0.00 | 0.00 | 46 | 1018.6 |
| 20260904184842 | 82 | 338 | 1.0 | 2.0 | 0.00 | 0.00 | 0.00 | 45 | 1018.6 |
| 20260904184642 | 82 | 22 | 1.0 | 2.0 | 0.00 | 0.00 | 0.00 | 45 | 1018.5 |
| 20260904184440 | 82 | 338 | 1.0 | 2.0 | 0.00 | 0.00 | 0.00 | 44 | 1018.7 |
| 20260904184050 | 82 | 338 | 0.0 | 0.0 | 0.00 | 0.00 | 0.00 | 45 | 1018.3 |
| 20260904183640 | 82 | 315 | 0.0 | 0.0 | 0.00 | 0.00 | 0.00 | 44 | 1018.7 |
| 20260904183440 | 82 | 338 | 0.0 | 0.0 | 0.00 | 0.00 | 0.00 | 44 | 1018.3 |
| 20260904183241 | 82 | 338 | 0.0 | 2.0 | 0.00 | 0.00 | 0.00 | 44 | 1018.3 |
| 20260904183050 | 82 | 338 | 0.0 | 0.0 | 0.00 | 0.00 | 0.00 | 44 | 1018.3 |
| 20260904182846 | 82 | 338 | 0.0 | 2.0 | 0.00 | 0.00 | 0.00 | 44 | 1018.3 |
| 20260904182642 | 82 | 0 | 0.0 | 0.0 | 0.00 | 0.00 | 0.00 | 45 | 1018.3 |
| 20260904182442 | 82 | 0 | 0.0 | 2.0 | 0.00 | 0.00 | 0.00 | 44 | 1018.2 |
| 20260904182243 | 82 | 338 | 0.0 | 0.0 | 0.00 | 0.00 | 0.00 | 45 | 1018.1 |
| 20260904182043 | 82 | 338 | 0.0 | 2.0 | 0.00 | 0.00 | 0.00 | 44 | 1018.1 |
| 20260904181841 | 82 | 338 | 1.0 | 2.0 | 0.00 | 0.00 | 0.00 | 44 | 1018.2 |
| 20260904181641 | 82 | 0 | 0.0 | 0.0 | 0.00 | 0.00 | 0.00 | 44 | 1018.0 |
| 20260904181441 | 83 | 315 | 0.0 | 2.0 | 0.00 | 0.00 | 0.00 | 44 | 1018.1 |
| 20260904181244 | 83 | 338 | 0.0 | 0.0 | 0.00 | 0.00 | 0.00 | 45 | 1017.9 |
| 20260904181050 | 83 | 338 | 0.0 | 2.0 | 0.00 | 0.00 | 0.00 | 44 | 1017.9 |
| 20260904180841 | 83 | 338 | 1.0 | 2.0 | 0.00 | 0.00 | 0.00 | 44 | 1017.8 |
| 20260904180642 | 82 | 338 | 2.0 | 2.0 | 0.00 | 0.00 | 0.00 | 43 | 1017.9 |
| 20260904180442 | 82 | 338 | 0.0 | 2.0 | 0.00 | 0.00 | 0.00 | 44 | 1017.8 |
| 20260904180242 | 82 | 338 | 0.0 | 2.0 | 0.00 | 0.00 | 0.00 | 45 | 1017.7 |
| 20260904175841 | 82 | 338 | 0.0 | 0.0 | 0.00 | 0.00 | 0.00 | 46 | 1017.6 |
| 20260904175044 | 83 | 338 | 0.0 | 0.0 | 0.00 | 0.00 | 0.00 | 45 | 1017.5 |
| 20260904174842 | 83 | 338 | 0.0 | 0.0 | 0.00 | 0.00 | 0.00 | 45 | 1017.6 |
| 20260904174642 | 84 | 338 | 0.0 | 0.0 | 0.00 | 0.00 | 0.00 | 45 | 1017.5 |
| 20260904174440 | 84 | 0 | 0.0 | 0.0 | 0.00 | 0.00 | 0.00 | 44 | 1017.6 |
| 20260904174244 | 84 | 338 | 0.0 | 0.0 | 0.00 | 0.00 | 0.00 | 44 | 1017.3 |
| 20260904173840 | 85 | 338 | 0.0 | 0.0 | 0.00 | 0.00 | 0.00 | 42 | 1017.4 |
| 20260904173642 | 85 | 0 | 0.0 | 0.0 | 0.00 | 0.00 | 0.00 | 42 | 1017.3 |
| 20260904173440 | 85 | 0 | 0.0 | 2.0 | 0.00 | 0.00 | 0.00 | 41 | 1017.3 |
| 20260904173243 | 86 | 338 | 0.0 | 2.0 | 0.00 | 0.00 | 0.00 | 41 | 1017.2 |
| 20260904173047 | 86 | 0 | 1.0 | 2.0 | 0.00 | 0.00 | 0.00 | 40 | 1017.4 |
| 20260904172840 | 86 | 338 | 2.0 | 2.0 | 0.00 | 0.00 | 0.00 | 39 | 1017.2 |
| 20260904172644 | 87 | 315 | 1.0 | 2.0 | 0.00 | 0.00 | 0.00 | 38 | 1017.2 |
| 20260904172440 | 87 | 22 | 2.0 | 2.0 | 0.00 | 0.00 | 0.00 | 38 | 1017.3 |
| 20260904172045 | 87 | 338 | 1.0 | 2.0 | 0.00 | 0.00 | 0.00 | 37 | 1017.2 |
| 20260904171840 | 88 | 22 | 2.0 | 2.0 | 0.00 | 0.00 | 0.00 | 37 | 1017.2 |